Hourly Weather Krainje

Today, 25 October, Sunday

Time Temperature Precipitation Wind Pressure Humidity
00:00 +14°C° 0 mm 1 mps 736 mmHg 84%
01:00 +14°C° 0 mm 1 mps 736 mmHg 82%
02:00 +12°C° 0 mm 0 mps 736 mmHg 88%
03:00 +13°C° 0 mm 1 mps 735 mmHg 88%
04:00 +13°C° 0 mm 1 mps 735 mmHg 88%
05:00 +13°C° 0 mm 1 mps 735 mmHg 89%
06:00 +12°C° 0.3 mm 1 mps 735 mmHg 100%
07:00 +12°C° 1.5 mm 1 mps 735 mmHg 100%
08:00 +12°C° 3.4 mm 1 mps 735 mmHg 100%
09:00 +13°C° 0.4 mm 1 mps 735 mmHg 99%
10:00 +12°C° 0.2 mm 3 mps 735 mmHg 99%
11:00 +13°C° 0.3 mm 3 mps 735 mmHg 98%
12:00 +14°C° 0.5 mm 3 mps 735 mmHg 94%
13:00 +17°C° 0 mm 2 mps 735 mmHg 84%
14:00 +18°C° 0 mm 3 mps 734 mmHg 80%
15:00 +18°C° 0 mm 3 mps 734 mmHg 85%
16:00 +17°C° 0.1 mm 4 mps 734 mmHg 89%
17:00 +15°C° 0.5 mm 4 mps 734 mmHg 92%
18:00 +14°C° 0 mm 4 mps 734 mmHg 96%
19:00 +14°C° 0 mm 4 mps 734 mmHg 94%
20:00 +13°C° 0.2 mm 4 mps 734 mmHg 99%
21:00 +13°C° 0 mm 4 mps 735 mmHg 95%
22:00 +13°C° 0.2 mm 5 mps 734 mmHg 98%
23:00 +13°C° 0.1 mm 4 mps 734 mmHg 97%

Tomorrow, 26 October, Monday

Time Temperature Precipitation Wind Pressure Humidity
00:00 +13°C° 0 mm 3 mps 734 mmHg 96%
01:00 +13°C° 0 mm 3 mps 734 mmHg 97%
02:00 +13°C° 0 mm 3 mps 734 mmHg 97%
03:00 +12°C° 0.1 mm 3 mps 734 mmHg 100%
04:00 +13°C° 0 mm 2 mps 734 mmHg 98%
05:00 +13°C° 0.1 mm 1 mps 734 mmHg 99%
06:00 +13°C° 0 mm 1 mps 733 mmHg 100%
07:00 +13°C° 0 mm 1 mps 734 mmHg 99%
08:00 +13°C° 0 mm 1 mps 734 mmHg 98%
09:00 +13°C° 0 mm 1 mps 734 mmHg 99%
10:00 +14°C° 0 mm 1 mps 734 mmHg 99%
11:00 +14°C° 0 mm 1 mps 734 mmHg 98%
12:00 +14°C° 0 mm 1 mps 734 mmHg 98%
13:00 +15°C° 0 mm 1 mps 734 mmHg 95%
14:00 +15°C° 0 mm 1 mps 734 mmHg 96%
15:00 +15°C° 0 mm 1 mps 734 mmHg 94%
16:00 +15°C° 0 mm 1 mps 734 mmHg 94%
17:00 +14°C° 0 mm 0 mps 733 mmHg 96%
18:00 +13°C° 0 mm 0 mps 733 mmHg 97%
19:00 +12°C° 0 mm 0 mps 734 mmHg 98%
20:00 +12°C° 0 mm 0 mps 734 mmHg 99%
21:00 +13°C° 0 mm 1 mps 734 mmHg 97%
22:00 +13°C° 0 mm 1 mps 734 mmHg 98%
23:00 +13°C° 0 mm 1 mps 734 mmHg 97%

Day after tomorrow, 27 October, Tuesday

Time Temperature Precipitation Wind Pressure Humidity
00:00 +12°C° 0 mm 0 mps 734 mmHg 97%
01:00 +13°C° 0 mm 1 mps 734 mmHg 98%
02:00 +13°C° 0 mm 1 mps 734 mmHg 97%
03:00 +13°C° 0 mm 1 mps 734 mmHg 94%
04:00 +13°C° 0 mm 1 mps 734 mmHg 92%
05:00 +13°C° 0 mm 1 mps 734 mmHg 88%
06:00 +13°C° 0 mm 1 mps 734 mmHg 87%
07:00 +12°C° 0 mm 1 mps 734 mmHg 90%
08:00 +11°C° 0 mm 0 mps 734 mmHg 94%
09:00 +12°C° 0 mm 1 mps 734 mmHg 95%
10:00 +13°C° 0 mm 1 mps 735 mmHg 94%
11:00 +14°C° 0 mm 1 mps 734 mmHg 95%
12:00 +15°C° 0 mm 1 mps 734 mmHg 95%
13:00 +16°C° 0 mm 1 mps 734 mmHg 93%
14:00 +16°C° 0 mm 1 mps 734 mmHg 91%
15:00 +16°C° 0 mm 1 mps 734 mmHg 91%
16:00 +16°C° 0 mm 1 mps 734 mmHg 93%
17:00 +14°C° 0 mm 0 mps 733 mmHg 98%
18:00 +14°C° 0 mm 0 mps 733 mmHg 95%
19:00 +13°C° 0 mm 0 mps 734 mmHg 95%
20:00 +14°C° 0 mm 1 mps 734 mmHg 96%
21:00 +14°C° 0 mm 1 mps 734 mmHg 94%
22:00 +14°C° 0 mm 1 mps 734 mmHg 90%
23:00 +13°C° 0 mm 1 mps 734 mmHg 90%

28 October, Wednesday

Time Temperature Precipitation Wind Pressure Humidity
00:00 +13°C° 0 mm 1 mps 734 mmHg 94%
01:00 +13°C° 0 mm 1 mps 734 mmHg 95%
02:00 +13°C° 0 mm 1 mps 734 mmHg 93%
03:00 +13°C° 0 mm 1 mps 734 mmHg 92%
04:00 +13°C° 0 mm 1 mps 734 mmHg 91%
05:00 +12°C° 0 mm 1 mps 734 mmHg 91%
06:00 +12°C° 0 mm 1 mps 734 mmHg 89%
07:00 +12°C° 0 mm 1 mps 734 mmHg 86%
08:00 +13°C° 0 mm 1 mps 734 mmHg 86%
09:00 +13°C° 0 mm 1 mps 734 mmHg 87%
10:00 +13°C° 0 mm 0 mps 735 mmHg 92%
11:00 +14°C° 0 mm 1 mps 735 mmHg 91%
12:00 +15°C° 0 mm 1 mps 735 mmHg 92%
13:00 +15°C° 0 mm 1 mps 735 mmHg 94%
14:00 +16°C° 0 mm 1 mps 735 mmHg 93%
15:00 +16°C° 0 mm 1 mps 735 mmHg 92%
16:00 +16°C° 0 mm 1 mps 735 mmHg 93%
17:00 +14°C° 0 mm 0 mps 735 mmHg 97%
18:00 +14°C° 0 mm 1 mps 735 mmHg 97%
19:00 +14°C° 0 mm 1 mps 735 mmHg 98%
20:00 +14°C° 0 mm 1 mps 735 mmHg 98%
21:00 +13°C° 0 mm 1 mps 736 mmHg 97%
22:00 +13°C° 0 mm 1 mps 736 mmHg 98%
23:00 +13°C° 0 mm 1 mps 736 mmHg 99%

29 October, Thursday

Time Temperature Precipitation Wind Pressure Humidity
00:00 +13°C° 0 mm 1 mps 736 mmHg 100%
01:00 +11°C° 0 mm 0 mps 736 mmHg 100%
02:00 +11°C° 0 mm 0 mps 736 mmHg 100%
03:00 +12°C° 0 mm 1 mps 736 mmHg 100%
04:00 +12°C° 0 mm 1 mps 736 mmHg 100%
05:00 +11°C° 0 mm 1 mps 736 mmHg 100%
06:00 +11°C° 0 mm 1 mps 736 mmHg 100%
07:00 +11°C° 0 mm 1 mps 737 mmHg 100%
08:00 +10°C° 0 mm 1 mps 737 mmHg 100%
09:00 +10°C° 0 mm 1 mps 737 mmHg 100%
10:00 +10°C° 0 mm 1 mps 738 mmHg 100%
11:00 +10°C° 0 mm 1 mps 738 mmHg 100%
12:00 +10°C° 0 mm 1 mps 738 mmHg 100%
13:00 +10°C° 0 mm 1 mps 739 mmHg 100%
14:00 +10°C° 0 mm 1 mps 739 mmHg 100%
15:00 +10°C° 0 mm 1 mps 739 mmHg 100%
16:00 +10°C° 0 mm 1 mps 739 mmHg 100%
17:00 +10°C° 0 mm 1 mps 739 mmHg 100%
18:00 +9°C° 0 mm 1 mps 739 mmHg 100%
19:00 +8°C° 0 mm 0 mps 740 mmHg 100%
20:00 +9°C° 0 mm 1 mps 740 mmHg 100%
21:00 +8°C° 0.2 mm 0 mps 740 mmHg 100%
22:00 +9°C° 0.8 mm 1 mps 740 mmHg 100%
23:00 +8°C° 0.4 mm 0 mps 741 mmHg 100%

30 October, Friday

Time Temperature Precipitation Wind Pressure Humidity
00:00 +8°C° 0.1 mm 0 mps 741 mmHg 100%
01:00 +8°C° 0 mm 0 mps 740 mmHg 100%
02:00 +8°C° 0 mm 0 mps 741 mmHg 100%
03:00 +9°C° 0 mm 1 mps 741 mmHg 100%
04:00 +9°C° 0 mm 1 mps 741 mmHg 100%
05:00 +9°C° 0 mm 1 mps 741 mmHg 100%
06:00 +8°C° 0 mm 1 mps 741 mmHg 100%
07:00 +8°C° 0 mm 1 mps 742 mmHg 100%
08:00 +7°C° 0 mm 0 mps 742 mmHg 100%
09:00 +7°C° 0 mm 0 mps 742 mmHg 100%
10:00 +8°C° 0 mm 1 mps 742 mmHg 100%
11:00 +8°C° 0 mm 2 mps 742 mmHg 100%
12:00 +8°C° 0 mm 2 mps 742 mmHg 100%
13:00 +8°C° 0 mm 2 mps 742 mmHg 100%
14:00 +9°C° 0.1 mm 2 mps 741 mmHg 99%
15:00 +9°C° 0 mm 2 mps 741 mmHg 99%
16:00 +9°C° 2.1 mm 1 mps 740 mmHg 100%
17:00 +9°C° 1.9 mm 1 mps 739 mmHg 100%
18:00 +9°C° 0.9 mm 2 mps 739 mmHg 100%
19:00 +9°C° 1 mm 2 mps 738 mmHg 100%
20:00 +9°C° 1.4 mm 3 mps 738 mmHg 100%
21:00 +8°C° 1 mm 4 mps 737 mmHg 100%
22:00 +9°C° 1.5 mm 3 mps 737 mmHg 100%
23:00 +9°C° 0.3 mm 2 mps 737 mmHg 100%
Show more